Showing default

GEESAT 2-09, 58913

Orbit data source: Space-Track

GEESAT 2-09, 58913 is a payload satellite owned by GeeSpace (CN) in LEO that was launched on Fri, 02 Feb 2024 UTC via a CHANG ZHENG 2C launch vehicle from the Xichang Space Center, China (XSC). Payload-class satellites include a variety of spacecraft equipped with specific instruments for various scientific and technological missions. These include communications satellites like Starlink; space stations such as the ISS; scientific satellites like the Hubble; Earth observation satellites from companies like Planet Labs, Umbra, and HawkEye 360; GPS; miniature CubeSats for education and research; and military/defense satellites.

Loading next visibility...
Identifier
58913, 2024-023J
Orbit
LEO
Country
Flag of CNCN / PRC
Related business
Manufacturer
GWCG
Mission
Operational Commercial Navigation
Bus & Motor
GPS100, Unknown motor
Mass
130 kg wet, 130 kg dry
Launch date (UTC)
2024-02-02 (2 years ago)
Launch vehicle
CHANG ZHENG 2C
Launch site
Xichang Space Center, China (XSC)
Object type
Payload
Rocket body
Debris
Shape & HBR
Box + 2 Pan, 1.0 m
Radar Cross Section
0.833 m², Medium (>0.1 m² and < 1m²)

Expand to show TLE details & history
Last TLE update: 10 hours ago

TLE from 10 hours ago
0 GEESAT 2-09
1 58913U 24023J   25303.90467075  .00004626  00000-0  49867-3 0  9993
2 58913  50.0042 336.1471 0016389 281.5950  78.3151 14.89931012 94883
Epoch: 2025-10-30T21:42Z
TLE epoch observation values (Epoch: 2025-10-30T21:42:43.552Z)
Latitude
-0.00005°
Longitude
-28.99117°
Altitude
596.4 km
Speed
7.564 km/s
True Right ascension
22h 24m 35s
True Declination
0° 00' 00"
Sunlit
Object was in full shadow at epoch
Visualization orbit readout
Latitude
Unknown
Longitude
Unknown
Altitude
Unknown
Speed
Unknown
Apparent Right ascension
Unknown
Apparent Declination
Unknown
Sunlit
N/A
Visualization observer readout
Local Sidereal Time
02:55:04
Azimuth
Unknown
Elevation
Unknown
Doppler factor
Unknown
Orbital elements
Apogee altitude
610.345 km
Perigee altitude
587.476 km
Semi-major axis
6,977.048 km
Eccentricity
0.00164
Inclination
50.0042°
RAAN
336.1471°
Arg. of periapsis
281.595°
True anomaly
78.49909°
Mean anomaly
78.3151°
Eccentric anomaly
78.40709°
Mean motion
3.72422 °/min
Orbital period
96.66 mins
BSTAR
0.00049867
Loading maneuver chart data...
Computing Atmospheric mass density...
Loading historical data...
Loading historical data...
Loading historical data...
Loading historical data...
Loading historical data...
Loading historical data...
Loading historical data...

Documentation

Showing up to 5 results
|